This is the latest recevied weather packets stored in our database for station/object SQ7IQO. If no packets are shown the sender has not sent any weather packets the latest 10 day(s).
| Time | Temp. | Humidity | Pressure | Rain* | Wind** | Luminosity | Snow |
|---|---|---|---|---|---|---|---|
| 1787505053 | 16.67° C | 62% | 1021.6 hPa | 0 mm | 0 m/s | - | - |
| 1787504993 | 16.67° C | 62% | 1107.2 hPa | 0 mm | 0 m/s | - | - |
| 1787504933 | 16.67° C | 61% | 1021.6 hPa | 0 mm | 0 m/s | - | - |
| 1787504873 | 16.67° C | 61% | 1021.6 hPa | 0 mm | 0.45 m/s, ° | - | - |
| 1787504813 | 17.22° C | 61% | 1021.9 hPa | 0 mm | 0.89 m/s, ° | - | - |
| 1787504753 | 17.22° C | 60% | 1021.6 hPa | 0 mm | 0 m/s | - | - |
| 1787504693 | 17.22° C | 60% | 1021.6 hPa | 0 mm | 0 m/s | - | - |
| 1787504633 | 17.22° C | 60% | 1023.1 hPa | 0 mm | 0 m/s | - | - |
| 1787504573 | 17.22° C | 60% | 1029.2 hPa | 0 mm | 0 m/s | - | - |
| 1787504513 | 17.22° C | 60% | - | 0 mm | 0.45 m/s, ° | - | - |
| 1787504453 | 17.22° C | 60% | 1021.6 hPa | 0 mm | 0 m/s | - | - |
| 1787504393 | 17.22° C | 60% | 1181 hPa | 0 mm | 0.89 m/s, ° | - | - |
| 1787504333 | 17.22° C | 60% | 1021.6 hPa | 0 mm | 0.45 m/s, ° | - | - |
| 1787504273 | 17.22° C | 60% | 1021.6 hPa | 0 mm | 0 m/s | - | - |
| 1787504213 | 17.22° C | 60% | 1021.6 hPa | 0 mm | 0 m/s | - | - |
| 1787504153 | 17.22° C | 60% | 1021.6 hPa | 0 mm | 0 m/s | - | - |
| 1787504093 | 17.22° C | 60% | 1021.6 hPa | 0 mm | 0.89 m/s, ° | - | - |
| 1787504033 | 17.22° C | 59% | 1085.4 hPa | 0 mm | 0.45 m/s, ° | - | - |
| 1787503973 | 17.22° C | 59% | 1021.6 hPa | 0 mm | 0.89 m/s, ° | - | - |
| 1787503913 | 17.22° C | 60% | 1021.6 hPa | 0 mm | 0.45 m/s, ° | - | - |
| 1787503853 | 17.22° C | 59% | 1260.7 hPa | 0 mm | 0.89 m/s, ° | - | - |
| 1787503793 | 17.22° C | 60% | 1021.6 hPa | 0 mm | 0.45 m/s, ° | - | - |
| 1787503733 | 17.22° C | 60% | 1021.7 hPa | 0 mm | 0.45 m/s, ° | - | - |
| 1787503673 | 17.22° C | 59% | 1020.3 hPa | 0 mm | 0.89 m/s, ° | - | - |
| 1787503613 | 17.22° C | 60% | 1021.7 hPa | 0 mm | 0.89 m/s, ° | - | - |
* Rain latest hour (hover to see other rain measurements)
** Current wind speed in m/s (hover to see current wind gust speed)